Torna al catalogo

ARIANE 42P+ DEB

LostHEO
NORAD 34190·DEBRIS·🇫🇷 France

Lanciato Oct 28, 1992 da Guiana Space Centre

Loading…

Prossimi Passaggi (prossime 24 ore)

TLE

ObsoletoSource: Space-Track

Epoca: Jun 7, 2025, 23:55 UTC

1 34190U 92072W   25158.99709708  .00001575  00000-0  18298-1 0  9994
2 34190   6.7653  95.1921 6558944 249.8001  31.8387  2.97972350121387

Traccia ARIANE 42P+ DEB in tempo reale con AllMySat

Download on the App Store